PWSweather.com
Personal Weather Stations
Station Observations
133525
French Quarters West Seneca , West Seneca, NY 14224

French Quarters West Seneca West Seneca, NY 14224

Lat: 42.850058, Lon: -78.799754

Elevation: 603

Station Type: Davis Vantage Vue pro2

http://westsenecaweather.com/

Latest ConditionsUpdated 9:20:01 AM EDT Saturday, Mar 25, 2017
Currently Today's Max Today's Min Today's Average
Temperature 35.9°F2.2°C 44.1°F6.7°C 35.9°F2.2°C 39.9°F4.4°C
Dew Point 34.3°F1.3°C 40.0°F4.4°C 34.3°F1.3°C 38.0°F3.3°C
Winds 6.9 mph NE11.1 kmh NE 8.1 mph NNE13.0 kmh NNE - 4.2 mph 6.8 kmh
Wind Gusts 10.4 mph16.7 kmh 12.7 mph20.4 kmh - -
Humidity 94% 95% 83% 93%
Pressure 30.21 in1023.0 mb 30.21 in1023.0 mb 30.08 in1018.6 mb -
Precipitation - 0.53 in13.5 mm - -
Hour Temp Dew Point Humidity Winds Wind Gusts Pressure Precip Precip Rate Daily Precip Total
09:20 AM 35.9°F2.2°C 34.3°F1.3°C 94% 6.9 mph NE11.1 kmh NE 10.4 mph16.7 kmh 30.21 in1023.0 mb - 0.01 in0.3 mm 0.53 in13.5 mm
09:10 AM 36.1°F2.3°C 34.5°F1.4°C 94% 4.6 mph NNE7.4 kmh NNE 9.2 mph14.8 kmh 30.20 in1022.7 mb - 0.00 in0.0 mm 0.52 in13.2 mm
09:00 AM 36.3°F2.4°C 34.7°F1.5°C 94% 4.6 mph NE7.4 kmh NE 10.4 mph16.7 kmh 30.20 in1022.7 mb - 0.00 in0.0 mm 0.52 in13.2 mm
08:50 AM 36.5°F2.5°C 35.0°F1.7°C 94% 8.1 mph NNE13.0 kmh NNE 11.5 mph18.5 kmh 30.19 in1022.4 mb - 0.01 in0.3 mm 0.52 in13.2 mm
08:40 AM 36.7°F2.6°C 35.1°F1.7°C 94% 3.5 mph NE5.6 kmh NE 6.9 mph11.1 kmh 30.19 in1022.4 mb - 0.00 in0.0 mm 0.51 in13.0 mm
08:30 AM 36.8°F2.7°C 35.2°F1.8°C 94% 5.8 mph NNE9.3 kmh NNE 9.2 mph14.8 kmh 30.19 in1022.4 mb - 0.00 in0.0 mm 0.51 in13.0 mm
08:20 AM 36.8°F2.7°C 35.3°F1.8°C 94% 5.8 mph N9.3 kmh N 8.1 mph13.0 kmh 30.18 in1022.0 mb - 0.01 in0.3 mm 0.51 in13.0 mm
08:10 AM 36.9°F2.7°C 35.3°F1.8°C 94% 5.8 mph NNE9.3 kmh NNE 9.2 mph14.8 kmh 30.16 in1021.3 mb - 0.00 in0.0 mm 0.50 in12.7 mm
08:00 AM 37.0°F2.8°C 35.4°F1.9°C 94% 6.9 mph NE11.1 kmh NE 9.2 mph14.8 kmh 30.16 in1021.3 mb - 0.00 in0.0 mm 0.50 in12.7 mm
07:50 AM 37.0°F2.8°C 35.4°F1.9°C 94% 5.8 mph NE9.3 kmh NE 10.4 mph16.7 kmh 30.15 in1021.0 mb - 0.00 in0.0 mm 0.50 in12.7 mm
07:40 AM 37.1°F2.8°C 35.5°F1.9°C 94% 4.6 mph NE7.4 kmh NE 6.9 mph11.1 kmh 30.14 in1020.7 mb - 0.01 in0.3 mm 0.50 in12.7 mm
07:30 AM 37.2°F2.9°C 35.6°F2.0°C 94% 5.8 mph NE9.3 kmh NE 10.4 mph16.7 kmh 30.15 in1021.0 mb - 0.00 in0.0 mm 0.49 in12.4 mm
07:20 AM 37.3°F2.9°C 35.7°F2.1°C 94% 4.6 mph NE7.4 kmh NE 4.6 mph7.4 kmh 30.15 in1021.0 mb - 0.00 in0.0 mm 0.49 in12.4 mm
07:10 AM 37.3°F2.9°C 35.7°F2.1°C 94% 4.6 mph NE7.4 kmh NE 6.9 mph11.1 kmh 30.14 in1020.7 mb - 0.00 in0.0 mm 0.49 in12.4 mm
07:00 AM 37.4°F3.0°C 35.8°F2.1°C 94% 5.8 mph ENE9.3 kmh ENE 8.1 mph13.0 kmh 30.13 in1020.3 mb - 0.00 in0.0 mm 0.49 in12.4 mm
06:50 AM 37.5°F3.1°C 36.0°F2.2°C 94% 5.8 mph NE9.3 kmh NE 9.2 mph14.8 kmh 30.12 in1020.0 mb - 0.01 in0.3 mm 0.49 in12.4 mm
06:40 AM 37.9°F3.3°C 36.3°F2.4°C 94% 5.8 mph NE9.3 kmh NE 8.1 mph13.0 kmh 30.12 in1020.0 mb - 0.01 in0.3 mm 0.48 in12.2 mm
06:30 AM 38.3°F3.5°C 36.7°F2.6°C 94% 6.9 mph NE11.1 kmh NE 12.7 mph20.4 kmh 30.12 in1020.0 mb - 0.01 in0.3 mm 0.47 in11.9 mm
06:20 AM 38.6°F3.7°C 37.0°F2.8°C 94% 3.5 mph NE5.6 kmh NE 9.2 mph14.8 kmh 30.12 in1020.0 mb - 0.00 in0.0 mm 0.46 in11.7 mm
06:10 AM 38.7°F3.7°C 37.1°F2.8°C 94% 6.9 mph NE11.1 kmh NE 10.4 mph16.7 kmh 30.12 in1020.0 mb - 0.00 in0.0 mm 0.46 in11.7 mm
06:00 AM 38.9°F3.8°C 37.6°F3.1°C 95% 4.6 mph NNE7.4 kmh NNE 6.9 mph11.1 kmh 30.12 in1020.0 mb - 0.00 in0.0 mm 0.46 in11.7 mm
05:50 AM 39.2°F4.0°C 37.9°F3.3°C 95% 4.6 mph NNE7.4 kmh NNE 9.2 mph14.8 kmh 30.12 in1020.0 mb - 0.00 in0.0 mm 0.46 in11.7 mm
05:40 AM 39.3°F4.1°C 38.0°F3.3°C 95% 4.6 mph NE7.4 kmh NE 6.9 mph11.1 kmh 30.12 in1020.0 mb - 0.00 in0.0 mm 0.46 in11.7 mm
05:30 AM 39.5°F4.2°C 38.2°F3.4°C 95% 3.5 mph NNE5.6 kmh NNE 3.5 mph5.6 kmh 30.11 in1019.6 mb - 0.00 in0.0 mm 0.46 in11.7 mm
05:20 AM 39.7°F4.3°C 38.4°F3.6°C 95% 4.6 mph NNE7.4 kmh NNE 4.6 mph7.4 kmh 30.11 in1019.6 mb - 0.00 in0.0 mm 0.46 in11.7 mm
05:10 AM 39.8°F4.3°C 38.5°F3.6°C 95% 4.6 mph NE7.4 kmh NE 6.9 mph11.1 kmh 30.11 in1019.6 mb - 0.00 in0.0 mm 0.46 in11.7 mm
05:00 AM 40.1°F4.5°C 38.8°F3.8°C 95% 4.6 mph NNE7.4 kmh NNE 4.6 mph7.4 kmh 30.11 in1019.6 mb - 0.00 in0.0 mm 0.46 in11.7 mm
04:50 AM 40.2°F4.6°C 38.9°F3.8°C 95% 3.5 mph NE5.6 kmh NE 6.9 mph11.1 kmh 30.10 in1019.3 mb - 0.05 in1.3 mm 0.46 in11.7 mm
04:40 AM 40.5°F4.7°C 39.2°F4.0°C 95% 3.5 mph N5.6 kmh N 5.8 mph9.3 kmh 30.11 in1019.6 mb - 0.00 in0.0 mm 0.41 in10.4 mm
04:30 AM 40.8°F4.9°C 39.4°F4.1°C 95% 5.8 mph N9.3 kmh N 8.1 mph13.0 kmh 30.12 in1020.0 mb - 0.03 in0.8 mm 0.41 in10.4 mm
04:20 AM 41.0°F5.0°C 39.7°F4.3°C 95% 4.6 mph N7.4 kmh N 4.6 mph7.4 kmh 30.11 in1019.6 mb - 0.05 in1.3 mm 0.40 in10.2 mm
04:10 AM 41.1°F5.1°C 39.8°F4.3°C 95% 2.3 mph NNE3.7 kmh NNE 4.6 mph7.4 kmh 30.10 in1019.3 mb - 0.00 in0.0 mm 0.35 in8.9 mm
04:00 AM 41.2°F5.1°C 39.9°F4.4°C 95% 2.3 mph NNE3.7 kmh NNE 3.5 mph5.6 kmh 30.11 in1019.6 mb - 0.00 in0.0 mm 0.35 in8.9 mm
03:50 AM 41.2°F5.1°C 39.9°F4.4°C 95% 1.2 mph NE1.9 kmh NE 3.5 mph5.6 kmh 30.10 in1019.3 mb - 0.00 in0.0 mm 0.35 in8.9 mm
03:40 AM 41.2°F5.1°C 39.9°F4.4°C 95% 2.3 mph NE3.7 kmh NE 3.5 mph5.6 kmh 30.10 in1019.3 mb - 0.00 in0.0 mm 0.35 in8.9 mm
03:30 AM 41.2°F5.1°C 39.6°F4.2°C 94% 2.3 mph NE3.7 kmh NE 3.5 mph5.6 kmh 30.11 in1019.6 mb - 0.00 in0.0 mm 0.35 in8.9 mm
03:20 AM 41.3°F5.2°C 39.7°F4.3°C 94% 2.3 mph NE3.7 kmh NE 3.5 mph5.6 kmh 30.11 in1019.6 mb - 0.00 in0.0 mm 0.35 in8.9 mm
03:10 AM 41.3°F5.2°C 40.0°F4.4°C 95% 2.3 mph NE3.7 kmh NE 3.5 mph5.6 kmh 30.11 in1019.6 mb - 0.01 in0.3 mm 0.35 in8.9 mm
03:00 AM 41.3°F5.2°C 39.7°F4.3°C 94% 2.3 mph NE3.7 kmh NE 4.6 mph7.4 kmh 30.09 in1019.0 mb - 0.00 in0.0 mm 0.34 in8.6 mm
02:50 AM 41.3°F5.2°C 39.7°F4.3°C 94% 3.5 mph NE5.6 kmh NE 4.6 mph7.4 kmh 30.10 in1019.3 mb - 0.00 in0.0 mm 0.34 in8.6 mm
02:40 AM 41.4°F5.2°C 39.8°F4.3°C 94% 2.3 mph NNE3.7 kmh NNE 3.5 mph5.6 kmh 30.11 in1019.6 mb - 0.05 in1.3 mm 0.34 in8.6 mm
02:30 AM 41.5°F5.3°C 39.9°F4.4°C 94% 2.3 mph ENE3.7 kmh ENE 4.6 mph7.4 kmh 30.09 in1019.0 mb - 0.06 in1.5 mm 0.31 in7.9 mm
02:20 AM 41.5°F5.3°C 39.7°F4.3°C 93% 2.3 mph ENE3.7 kmh ENE 3.5 mph5.6 kmh 30.10 in1019.3 mb - 0.02 in0.5 mm 0.25 in6.4 mm
02:10 AM 41.6°F5.3°C 39.7°F4.3°C 93% 2.3 mph NNE3.7 kmh NNE 3.5 mph5.6 kmh 30.11 in1019.6 mb - 0.01 in0.3 mm 0.23 in5.8 mm
02:00 AM 41.6°F5.3°C 39.7°F4.3°C 93% 2.3 mph NNE3.7 kmh NNE 4.6 mph7.4 kmh 30.10 in1019.3 mb - 0.01 in0.3 mm 0.22 in5.6 mm
01:50 AM 41.6°F5.3°C 39.7°F4.3°C 93% 2.3 mph NE3.7 kmh NE 4.6 mph7.4 kmh 30.10 in1019.3 mb - 0.01 in0.3 mm 0.21 in5.3 mm
01:40 AM 41.8°F5.4°C 39.6°F4.2°C 92% 2.3 mph ENE3.7 kmh ENE 3.5 mph5.6 kmh 30.08 in1018.6 mb - 0.02 in0.5 mm 0.20 in5.1 mm
01:30 AM 41.9°F5.5°C 39.7°F4.3°C 92% 2.3 mph NE3.7 kmh NE 3.5 mph5.6 kmh 30.10 in1019.3 mb - 0.03 in0.8 mm 0.18 in4.6 mm
01:20 AM 42.0°F5.6°C 39.6°F4.2°C 91% 2.3 mph ENE3.7 kmh ENE 3.5 mph5.6 kmh 30.09 in1019.0 mb - 0.04 in1.0 mm 0.16 in4.1 mm
01:10 AM 42.2°F5.7°C 39.5°F4.2°C 90% 5.8 mph NE9.3 kmh NE 9.2 mph14.8 kmh 30.10 in1019.3 mb - 0.03 in0.8 mm 0.13 in3.3 mm
01:00 AM 42.7°F5.9°C 39.7°F4.3°C 89% 3.5 mph NE5.6 kmh NE 5.8 mph9.3 kmh 30.11 in1019.6 mb - 0.05 in1.3 mm 0.10 in2.5 mm
12:50 AM 43.3°F6.3°C 39.4°F4.1°C 86% 4.6 mph NE7.4 kmh NE 6.9 mph11.1 kmh 30.09 in1019.0 mb - 0.05 in1.3 mm 0.05 in1.3 mm
12:40 AM 43.7°F6.5°C 39.2°F4.0°C 84% 2.3 mph NE3.7 kmh NE 4.6 mph7.4 kmh 30.09 in1019.0 mb - 0.00 in0.0 mm 0.00 in0.0 mm
12:30 AM 43.8°F6.6°C 39.0°F3.9°C 83% 5.8 mph ENE9.3 kmh ENE 9.2 mph14.8 kmh 30.08 in1018.6 mb - 0.00 in0.0 mm 0.00 in0.0 mm
12:20 AM 43.9°F6.6°C 39.4°F4.1°C 84% 5.8 mph ENE9.3 kmh ENE 11.5 mph18.5 kmh 30.09 in1019.0 mb - 0.00 in0.0 mm 0.00 in0.0 mm
12:10 AM 44.0°F6.7°C 39.2°F4.0°C 83% 4.6 mph ENE7.4 kmh ENE 10.4 mph16.7 kmh 30.08 in1018.6 mb - 0.00 in0.0 mm 0.00 in0.0 mm
12:00 AM 44.1°F6.7°C 39.3°F4.1°C 83% 5.8 mph NE9.3 kmh NE 10.4 mph16.7 kmh 30.08 in1018.6 mb - 0.00 in0.0 mm 0.00 in0.0 mm